Ishigaki, Japan

3:55 PM JST on September 25, 2016 (GMT +0900)
Ishigaki

Weather History for ROIG - January, 2014

Change the Weather History Date:

Saturday, January 18, 2014

  Actual Average Record
Temperature  
Mean Temperature 62 °F -  
Max Temperature 66 °F 69 °F 78 °F (2006)
Min Temperature 59 °F 62 °F 55 °F (2013)
Degree Days  
Heating Degree Days 2    
Growing Degree Days 12 (Base 50)    
Moisture  
Dew Point 44 °F    
Average Humidity 45    
Maximum Humidity 59    
Minimum Humidity 33    
Precipitation  
Precipitation 0.00 in - - ()
Sea Level Pressure  
Sea Level Pressure 30.28 in    
Wind  
Wind Speed 13 mph ()    
Max Wind Speed 22 mph    
Max Gust Speed 28 mph    
Visibility 7.6 miles    
Events      
Averages and records for this station are not official NWS values.
T = Trace of Precipitation, MM = Missing Value Source: Averaged Metar Reports

Daily Weather History Graph

Daily Weather History Graph

Search for Another Location

Airport or City:

Trip Planner

Search our weather history database for the weather conditions in past years. The results will help you decide how hot, cold, wet, or windy it might be!

Date:

Astronomy

Jan. 18, 2014 Rise Set
Actual Time 7:28 AM JST 6:18 PM JST
Civil Twilight 7:04 AM JST 6:43 PM JST
Nautical Twilight 6:36 AM JST 7:10 PM JST
Astronomical Twilight 6:09 AM JST 7:38 PM JST
Moon 8:09 PM JST (1/18) 8:25 AM JST (1/18)
Length of Visible Light 11h 38m
Length of Day
10h 49m
Full, 97% of the Moon is Illuminated
Jan 18
Full
Jan 24
Last Quarter
Jan 31
New
Feb 7
First Quarter
Feb 15
Full

Hourly Weather History & Observations

Time (JST) Temp. Dew Point Humidity Pressure Visibility Wind Dir Wind Speed Gust Speed Precip Events Conditions
12:00 AM 62 °F 51 °F 58% 30.21 in - North 10.4 mph - -  
1:00 AM 63 °F 52 °F 58% 30.20 in - North 10.4 mph - -  
3:00 AM 62 °F 50 °F 55% 30.21 in 19 mi North 10.4 mph - -   Scattered Clouds
4:00 AM 61 °F 49 °F 56% 30.21 in - North 9.2 mph - -  
5:00 AM 61 °F 47 °F 50% 30.22 in - North 9.2 mph - -  
6:00 AM 62 °F 48 °F 49% 30.23 in 16 mi North 13.8 mph - -   Partly Cloudy
6:00 AM 60.8 °F 46.4 °F 59% 30.21 in 6.2 mi North 12.7 mph - N/A   Partly Cloudy
7:00 AM 61 °F 46 °F 47% 30.25 in - North 13.8 mph - -  
7:00 AM 60.8 °F 44.6 °F 55% 30.21 in 6.2 mi North 13.8 mph - N/A   Partly Cloudy
8:00 AM 61 °F 45 °F 45% 30.28 in - North 11.5 mph - -  
8:00 AM 59.0 °F 42.8 °F 55% 30.24 in 6.2 mi North 13.8 mph - N/A   Partly Cloudy
9:00 AM 63 °F 44 °F 39% 30.30 in 16 mi North 15.0 mph - -   Scattered Clouds
9:00 AM 62.6 °F 41.0 °F 45% 30.27 in 6.2 mi North 15.0 mph - N/A   Partly Cloudy
10:00 AM 65 °F 46 °F 39% 30.32 in - North 13.8 mph - -  
10:00 AM 66.2 °F 44.6 °F 46% 30.30 in 6.2 mi NNE 17.3 mph - N/A   Partly Cloudy
11:00 AM 66 °F 47 °F 38% 30.33 in - North 16.1 mph - -  
11:00 AM 64.4 °F 44.6 °F 49% 30.30 in 6.2 mi North 17.3 mph - N/A   Partly Cloudy
12:00 PM 64 °F 45 °F 39% 30.31 in 12 mi North 18.4 mph - -   Mostly Cloudy
12:00 PM 62.6 °F 44.6 °F 52% 30.27 in 6.2 mi North 16.1 mph - N/A   Partly Cloudy
1:00 PM 65 °F 45 °F 37% 30.29 in - North 17.3 mph - -  
1:00 PM 62.6 °F 42.8 °F 48% 30.27 in 6.2 mi North 16.1 mph - N/A   Scattered Clouds
2:00 PM 64 °F 45 °F 38% 30.27 in - North 19.6 mph - -  
2:00 PM 62.6 °F 42.8 °F 48% 30.24 in 6.2 mi North 16.1 mph - N/A   Scattered Clouds
3:00 PM 64 °F 42 °F 33% 30.27 in 6 mi North 17.3 mph - -   Mostly Cloudy
3:00 PM 64.4 °F 42.8 °F 45% 30.24 in 6.2 mi North 15.0 mph 27.6 mph N/A   Partly Cloudy
4:00 PM 63 °F 43 °F 36% 30.28 in - North 17.3 mph - -  
4:00 PM 62.6 °F 37.4 °F 39% 30.24 in 4.3 mi North 13.8 mph - N/A   Partly Cloudy
5:00 PM 62 °F 42 °F 36% 30.30 in - North 18.4 mph - -  
5:00 PM 60.8 °F 39.2 °F 45% 30.27 in 5.0 mi North 13.8 mph 25.3 mph N/A   Partly Cloudy
6:00 PM 61 °F 41 °F 36% 30.32 in 5 mi North 15.0 mph - -   Haze
6:00 PM 59.0 °F 39.2 °F 48% 30.27 in 5.0 mi North 18.4 mph - N/A   Mostly Cloudy
7:00 PM 61 °F 41 °F 36% 30.33 in - North 18.4 mph - -  
7:00 PM 59.0 °F 37.4 °F 45% 30.30 in 5.0 mi North 12.7 mph 24.2 mph N/A   Scattered Clouds
8:00 PM 60 °F 38 °F 33% 30.33 in - North 16.1 mph - -  
8:00 PM 59.0 °F 39.2 °F 48% 30.30 in 6.2 mi North 21.9 mph - N/A   Scattered Clouds
9:00 PM 61 °F 44 °F 41% 30.35 in 5 mi North 15.0 mph - -   Haze
10:00 PM 61 °F 44 °F 43% 30.36 in - North 17.3 mph - -  
11:00 PM 61 °F 42 °F 38% 30.37 in - North 17.3 mph - -